Home   Weather   Ravensburg   Past weeks

Flag for Germany Past Weather in Ravensburg, Baden-Württemberg, Germany — Yesterday and Last 2 Weeks

Now
19 °F

Low clouds.


Feels Like: 11 °F
Forecast: 11 / 30 °F
Wind: 6 mph from North

Location: Friedrichshafen Airport

Current Time: Jan 20, 2017 at 7:34:25 pm

Latest Report: Jan 20, 2017 at 6:20 pm


Visibility: 4 mi

Pressure: 30.45 "Hg

Humidity: 86%

Dew Point: 16 °F

Location of RavensburgLocation

Past Weather in Ravensburg — Graph

°F

Ravensburg Temperature Yesterday

Maximum temperature yesterday: 25 °F (at 12:20 am)
Minimum temperature yesterday: 18 °F (at 9:20 pm)
Average temperature yesterday: 23 °F

High & Low Weather Summary for the Past Weeks

 TemperatureHumidityPressure
High43 °F (Jan 12, 12:50 pm)100% (Jan 8, 1:20 am)30.66 "Hg (Jan 8, 1:20 am)
Low5 °F (Jan 7, 5:50 am)63% (Jan 6, 2:50 pm)29.47 "Hg (Jan 13, 12:20 am)
Average27 °F84%30.21 "Hg
* Reported Jan 5 6:20 pm — Jan 20 6:20 pm, Ravensburg, Weather by CustomWeather, © 2017

Note: Actual official high and low records may vary slightly from our data, if they occured in-between our weather recording intervals... More about our weather records

Advertising

Ravensburg Weather History for the Previous 24 Hours

Scroll right to see more
 ConditionsComfort  
Time TempWeatherWind HumidityBarometerVisibility
6:20 pm
Fri, Jan 20
19 °FLow clouds.6 mph86%30.45 "Hg4 mi
5:50 pm19 °FLow clouds.5 mph86%30.45 "Hg4 mi
5:20 pm19 °FLow clouds.7 mph86%30.45 "Hg4 mi
4:50 pm19 °FLow clouds.7 mph86%30.45 "Hg4 mi
4:20 pm19 °FLow clouds.6 mph86%30.45 "Hg4 mi
3:50 pm19 °FLow clouds.6 mph86%30.45 "Hg4 mi
3:20 pm19 °FOvercast.6 mph86%30.45 "Hg4 mi
2:50 pm19 °FOvercast.5 mph86%30.42 "Hg4 mi
2:20 pm19 °FOvercast.3 mph86%30.45 "Hg4 mi
1:50 pm19 °FOvercast.6 mph86%30.45 "Hg4 mi
1:20 pm19 °FOvercast.6 mph86%30.45 "Hg4 mi
12:50 pm19 °FIce fog.6 mph86%30.45 "Hg3 mi
12:20 pm19 °FIce fog.6 mph86%30.45 "Hg3 mi
11:50 am19 °FIce fog.6 mph86%30.48 "Hg3 mi
11:20 am19 °FIce fog.7 mph86%30.48 "Hg3 mi
10:50 am18 °FIce fog.5 mph93%30.48 "Hg3 mi
10:20 am18 °FIce fog.6 mph93%30.48 "Hg3 mi
9:50 am18 °FIce fog.6 mph86%30.48 "Hg3 mi
9:20 am18 °FIce fog.7 mph86%30.45 "Hg2 mi
8:50 am18 °FIce fog.7 mph86%30.45 "Hg2 mi
8:20 am16 °FIce fog.6 mph93%30.45 "Hg2 mi
7:50 am16 °FIce fog.7 mph86%30.45 "Hg2 mi
7:20 am16 °FIce fog.7 mph86%30.45 "Hg3 mi
6:50 am14 °FIce fog.6 mph92%30.45 "Hg3 mi
6:20 am14 °FIce fog.6 mph85%30.45 "Hg3 mi
5:50 am12 °FIce fog.6 mph92%30.45 "Hg3 mi
5:20 am10 °FIce fog.3 mph92%30.45 "Hg3 mi
4:50 am12 °FPassing clouds.5 mph85%30.45 "Hg3 mi
4:20 am12 °FPassing clouds.3 mph92%30.45 "Hg3 mi
3:50 am14 °FPassing clouds.6 mph85%30.45 "Hg4 mi
3:20 am14 °FPassing clouds.3 mph92%30.45 "Hg4 mi
2:50 am14 °FCold.3 mph92%30.45 "Hg4 mi
1:50 am16 °FClear.6 mph86%30.45 "Hg4 mi
1:20 am16 °FCold.6 mph86%30.45 "Hg4 mi
12:50 am16 °FCold.5 mph86%30.45 "Hg4 mi
12:20 am16 °FCold.5 mph86%30.45 "Hg4 mi
11:50 pm
Thu, Jan 19
18 °FCold.6 mph86%30.45 "Hg4 mi
11:20 pm18 °FCold.7 mph86%30.45 "Hg4 mi
10:50 pm18 °FCold.7 mph86%30.45 "Hg4 mi
10:20 pm19 °FCold.7 mph79%30.45 "Hg4 mi
9:50 pm18 °FCold.6 mph86%30.45 "Hg4 mi
9:20 pm18 °FIce fog.3 mph86%30.45 "Hg3 mi
8:50 pm21 °FClear.5 mph80%30.45 "Hg5 mi
8:20 pm21 °FPassing clouds.7 mph80%30.45 "Hg6 mi
7:50 pm21 °FPassing clouds.7 mph86%30.45 "Hg6 mi
7:20 pm23 °FPassing clouds.8 mph80%30.45 "Hg6 mi
Weather by CustomWeather, © 2017

See weather overviewHow to use our weather pages